Location: Libas
(9.8833°N, 125.9833°E)
Time: 21:57:44
(UTC+00:00)

Cosmos 2026 Rocket - Pass Details

Date: 27 October 2020
Orbit: 939 x 1002 km, 82.9° (Epoch: 25 November)

Event Time Altitude Azimuth Distance (km) Brightness Sun altitude
Rises 20:45:29 0° 197° (SSW) 3,684 7.0 -10.5°
Reaches altitude 10° 20:48:06 10° 203° (SSW) 2,744 6.2 -9.9°
Maximum altitude 20:54:04 45° 274° (W) 1,329 4.3 -8.4°
Drops below altitude 10° 21:00:05 10° 346° (NNW) 2,764 6.1 -7.0°
Sets 21:02:45 0° 352° (N) 3,714 6.8 -6.4°
